Miscellaneous Local Product
Issued by NWS North Platte, NE

Home | Current Version | Previous Version | Graphics & Text | Print | Product List | Glossary On
Versions: 1 2 3 4 5 6 7 8 9 10 11 12 13 14 15 16 17 18 19 20 21 22 23 24 25 26 27 28 29 30 31 32 33 34 35 36 37 38 39 40 41 42 43 44 45 46 47 48 49 50
000
AXUS43 KLBF 220710
MISLBF


WESTERN AND NORTH CENTRAL NEBRASKA HOURLY WEATHER ROUNDUP
NATIONAL WEATHER SERVICE NORTH PLATTE NE
200 AM CDT WED MAR 22 2017

NOTE: "FAIR" INDICATES FEW OR NO CLOUDS BELOW 12,000 FEET WITH NO
SIGNIFICANT WEATHER AND/OR OBSTRUCTIONS TO VISIBILITY.

NOTE: STATIONS NOT REPORTING VARIABLES SUCH AS SKY/WEATHER OR
PRESSURE ARE PROVIDED BY RAWS AND APRS NETWORKS AND ARE NOT UNDER
NATIONAL WEATHER SERVICE QUALITY CONTROL.

...OBSERVATIONS IN AND NEAR THE EASTERN PANHANDLE OF NEBRASKA...

CITY           SKY/WX    TMP DP  RH WIND       PRES   REMARKS
PINE RIDGE     LGT RAIN  36  33  89 SE12      30.16F WCI  28
CHADRON        CLOUDY    40  32  73 S14G22    30.14F WCI  32
ALLIANCE       CLOUDY    36  31  82 SE23G32   30.17F WCI  24
SIDNEY         CLOUDY    36  30  79 SE22      30.20S WCI  25
CRESCENT LAKE    N/A     36  33  88 SE12G22     N/A  WCI  28
$$

...OBSERVATIONS IN NORTHERN NEBRASKA AND FAR SOUTHERN SOUTH DAKOTA...

CITY           SKY/WX    TMP DP  RH WIND       PRES   REMARKS
WINNER         CLOUDY    31  27  85 E21       30.33F WCI  18
VALENTINE      CLOUDY    32  25  75 SE12      30.31F WCI  23
THEDFORD       CLOUDY    33  27  78 SE14      30.28F WCI  23
AINSWORTH      CLOUDY    32  29  89 E14       30.30F WCI  22
O`NEILL        CLOUDY    33  28  81 E9        30.40F WCI  25
ORD            CLOUDY    36  27  69 CALM      30.39R
BROKEN BOW     LGT RAIN  35  25  66 SE9       30.35F WCI  28
VALENTINE NWR    N/A     31  26  82 SE14        N/A  WCI  21
HALSEY           N/A     50  25  38 SE8         N/A
BUTTE            N/A     28  26  90 E13         N/A  WCI  17
CHAMBERS         N/A     34  25  68 E6          N/A  WCI  29
EWING            N/A     32  27  82 E7          N/A  WCI  26
$$

...OBSERVATIONS IN SOUTHWEST NEBRASKA AND FAR NORTHEAST COLORADO...

CITY           SKY/WX    TMP DP  RH WIND       PRES   REMARKS
HOLYOKE        PTSUNNY   37  32  81 SE20G26   30.25S WCI  27
IMPERIAL       CLOUDY    37  31  78 SE17G24   30.28R WCI  27
OGALLALA       CLOUDY    39  33  79 SE15      30.27S WCI  30
NORTH PLATTE   CLOUDY    34  26  72 SE21G30   30.25F WCI  22
MCCOOK         CLOUDY    37  27  67 E14       30.33R WCI  28
LEXINGTON      RAIN      36  26  67 E10       30.34F WCI  28
STAPLETON        N/A     31  24  76 E3G12       N/A
GOTHENBURG       N/A     35  26  69 E9          N/A  WCI  28
CALLAWAY         N/A     32  26  79 E8          N/A  WCI  25
$$

...OBSERVATIONS IN CENTRAL LINCOLN COUNTY AREA...

CITY           SKY/WX    TMP DP  RH WIND       PRES   REMARKS
N.P. AIRPORT   CLOUDY    34  26  72 SE21G30   30.25F WCI  22
N.P. DOWNTOWN    N/A     34  27  74 E7G20       N/A  WCI  28
N.P. SOUTHEAST   N/A     33  26  76 E9G16       N/A  WCI  25
N.P. HILLCREST   N/A     34  27  75 SE12G24     N/A  WCI  25
$$

...SOME OBSERVATIONS FROM AROUND THE REGION...

CITY           SKY/WX    TMP DP  RH WIND       PRES   REMARKS
DENVER         PTCLDY    46  35  65 S18       30.08S
LIMON          CLOUDY    36  30  79 S13       30.19S WCI  27
ASPEN          CLOUDY    41  29  62 SW8       30.16F
LARAMIE        CLOUDY    37  32  82 S20       30.07S WCI  27
GILLETTE       CLOUDY    34  32  92 S22G31    29.94F WCI  22
CHEYENNE       CLOUDY    36  28  73 SE10G21   30.12F WCI  28
SCOTTSBLUFF    CLOUDY    38  31  76 SE24G30   30.15F WCI  27
GRAND ISLAND   CLOUDY    36  27  69 NE6       30.39R WCI  31
OMAHA          PTCLDY    37  22  54 NE13G20   30.44R WCI  29
SIOUX FALLS    CLOUDY    24  19  81 NE6       30.47S WCI  17
PIERRE         CLOUDY    31  19  61 SE18      30.35F WCI  19
RAPID CITY     CLOUDY    29  27  92 SE16      30.13F WCI  17
BISMARCK       CLOUDY    25  17  72 SE16      30.36F WCI  12
KANSAS CITY    CLOUDY    43  24  47 NE17      30.34S
HILL CITY      CLOUDY    39  30  70 E13       30.33F WCI  31
WICHITA        CLOUDY    52  29  41 NE22      30.24S
DODGE CITY     CLOUDY    48  27  44 NE10      30.26R
OKLAHOMA CITY  MOCLDY    55  40  56 NE15      30.11S
DALLAS         PTCLDY    72  58  61 S12       30.00F
AMARILLO       CLOUDY    51  41  68 E13       30.19R
$$




USA.gov is the U.S. government's official web portal to all federal, state and local government web resources and services.